This is the latest recevied weather packets stored in our database for station/object KE8GJZ-1. If no packets are shown the sender has not sent any weather packets the latest 10 day(s).
| Time | Temp. | Humidity | Pressure | Rain* | Wind** | Luminosity | Snow |
|---|---|---|---|---|---|---|---|
| 1777134987 | 11.11° C | 90% | 1011.9 hPa | 0 mm | - | 131 W/m² | - |
| 1777134685 | 10.56° C | 92% | 1012 hPa | 0 mm | - | 155 W/m² | - |
| 1777134380 | 10.56° C | 93% | 1011.8 hPa | 0 mm | - | 102 W/m² | - |
| 1777134077 | 10.56° C | 94% | 1011.9 hPa | 0 mm | - | 111 W/m² | - |
| 1777133774 | 10.56° C | 94% | 1011.8 hPa | 0 mm | - | 128 W/m² | - |
| 1777133469 | 10.56° C | 94% | 1011.8 hPa | 0 mm | - | 106 W/m² | - |
| 1777133163 | 10.56° C | 93% | 1011.7 hPa | 0 mm | - | 81 W/m² | - |
| 1777132858 | 11.11° C | 94% | 1011.6 hPa | 0 mm | - | 83 W/m² | - |
| 1777132555 | 11.11° C | 93% | 1011.3 hPa | 0 mm | - | 85 W/m² | - |
| 1777132252 | 10.56° C | 94% | 1011.4 hPa | 0 mm | - | 93 W/m² | - |
| 1777131947 | 10.56° C | 97% | 1011.3 hPa | 0 mm | - | 114 W/m² | - |
| 1777131646 | 10.56° C | 99% | 1011.3 hPa | 0 mm | - | 116 W/m² | - |
| 1777131345 | 10.56° C | 99% | 1011.3 hPa | 0 mm | - | 164 W/m² | - |
| 1777131039 | 10.56° C | 99% | 1011.3 hPa | 0 mm | - | 193 W/m² | - |
| 1777130735 | 10° C | 99% | 1011.2 hPa | 0 mm | - | 86 W/m² | - |
| 1777130432 | 10.56° C | 99% | 1011 hPa | 0 mm | - | 88 W/m² | - |
| 1777130123 | 10° C | 99% | 1011.2 hPa | 0 mm | - | 68 W/m² | - |
| 1777129818 | 10° C | 99% | 1011.1 hPa | 0 mm | - | 70 W/m² | - |
| 1777129513 | 10° C | 99% | 1011.2 hPa | 0 mm | - | 78 W/m² | - |
| 1777129213 | 10° C | 99% | 1011 hPa | 0 mm | - | 63 W/m² | - |
| 1777128909 | 10° C | 99% | 1011 hPa | 0 mm | - | 66 W/m² | - |
| 1777128606 | 10.56° C | 99% | 1011 hPa | 0 mm | - | 63 W/m² | - |
* Rain latest hour (hover to see other rain measurements)
** Current wind speed in m/s (hover to see current wind gust speed)